Regional Weather Roundup
Issued by NWS

Home | Current Version | Previous Version | Text Only | Print | Product List | Glossary On
Versions: 1 2 3 4 5 6 7 8 9 10 11 12 13 14 15 16 17 18 19 20 21 22 23 24 25 26 27 28 29 30 31 32 33 34 35 36 37 38 39 40 41 42 43 44 45 46 47 48 49 50
000
ASUS45 KBOI 091410
RWRID

IDAHO REGIONAL WEATHER ROUNDUP
NATIONAL WEATHER SERVICE BOISE ID
700 AM MST TUE FEB 09 2016

NOTE: "FAIR" INDICATES FEW OR NO CLOUDS BELOW 12000 FEET
WITH NO SIGNIFICANT WEATHER AND/OR OBSTRUCTIONS TO VISIBILITY

IDZ012-014-091500-
SOUTHWEST IDAHO


CITY           SKY/WX    TMP DP  RH WIND       PRES   REMARKS
BOISE          CLOUDY    28  23  81 S8        30.60S WCI  20
CALDWELL       CLOUDY    30  26  85 SE8       30.63R WCI  22
MOUNTAIN HOME  CLOUDY    27  27 100 E16       30.60S WCI  14
$$

IDZ016-017-091500-
SOUTHCENTRAL IDAHO


CITY           SKY/WX    TMP DP  RH WIND       PRES   REMARKS
BURLEY         CLOUDY    26  26 100 NE9       30.56S FOG     WCI  17
JEROME         FOG       22  20  92 E12       30.57S VSB 1   WCI  10
TWIN FALLS     FOG       28  26  92 E7        30.57S VSB 1/4 WCI  21
$$

IDZ019>023-091500-
SOUTHEAST IDAHO


CITY           SKY/WX    TMP DP  RH WIND       PRES   REMARKS
IDAHO FALLS    FOG        4   1  88 VRB3      30.61S VSB 1/2
POCATELLO      FOG       18  17  96 NE5       30.60F VSB 3/4 WCI  11
REXBURG        CLOUDY    10   7  87 CALM      30.60S
$$

IDZ006-010-011-018-031-032-091500-
CENTRAL IDAHO MOUNTAINS


CITY           SKY/WX    TMP DP  RH WIND       PRES   REMARKS
MCCALL         FOG       17  13  84 CALM      30.50F VSB 1/4
HAILEY         PTCLDY    21  19  93 NW9       30.56F WCI  11
STANLEY          N/A     14   8  77 CALM      30.62F
SALMON         CLOUDY     7   3  85 CALM      30.66S
CHALLIS        PTCLDY     7   3  84 S3        30.62S
$$

IDZ002-004-006-007-026-091500-
NORTHERN IDAHO


CITY           SKY/WX    TMP DP  RH WIND       PRES   REMARKS
LEWISTON       CLEAR     36  31  82 CALM      30.45F
LOWELL           N/A     33  30  88 CALM      30.57F
COEUR D`ALENE  CLEAR     32  28  86 NE9       30.46S WCI  24
MULLAN PASS    CLEAR     37  30  75 S7        30.45F WCI  32
$$



USA.gov is the U.S. government's official web portal to all federal, state and local government web resources and services.